DateTime,F1_A11,F1_S11,BsB_S11,BsG_S11,BsR_S11,BbsB_S11,BbsG_S11,BbsR_S11,BaB_A11,BaG_A11,BaR_A11,T_S11,U_S11,P_S11,T1_A11
2016-09-05T00:00:00Z,0000380,21000600,,,,,,,,,,27.0,00.0,0660.7,34.7
2016-09-05T00:01:00Z,0000380,21000600,,,,,,,,,,27.0,00.0,0660.7,34.7
2016-09-05T00:02:00Z,0000380,21000600,,,,,,,,,,27.0,00.0,0660.7,34.7
2016-09-05T00:03:00Z,0000380,61000600,,,,,,,,,,27.0,00.0,0660.7,34.7
2016-09-05T00:04:00Z,0000380,41000600,-000.33,-000.05,-000.26,0000.00,0000.16,-000.03,-000.18,0000.09,0000.15,27.1,00.0,0661.6,34.7
2016-09-05T00:05:00Z,0000380,01000600,0000.93,0000.20,0000.09,0000.19,0000.11,-000.06,-000.03,0000.08,-000.03,27.0,00.0,0661.6,34.7
2016-09-05T00:06:00Z,0000380,01000600,0000.59,0000.36,0000.35,0000.19,0000.56,0000.26,0000.07,-000.04,0000.05,27.0,00.0,0661.6,34.7
2016-09-05T00:07:00Z,0000380,01000600,0000.24,-000.22,0000.07,0000.45,-000.10,-000.03,0000.14,0000.05,-000.17,27.0,00.0,0661.6,34.7
2016-09-05T00:08:00Z,0000380,01000600,-001.00,0000.50,0000.08,-000.14,0000.48,0000.11,-000.03,-000.17,0000.19,27.0,00.0,0661.6,34.7
2016-09-05T00:09:00Z,0000380,01000600,0000.76,-000.20,0000.16,-000.38,0000.00,0000.19,0000.05,0000.27,0000.09,27.0,00.1,0661.5,34.7
2016-09-05T00:10:00Z,0000380,01000600,0000.47,0000.28,0000.29,-000.51,0000.46,0000.27,0000.07,-000.09,-000.23,27.0,00.1,0661.5,34.7
2016-09-05T00:11:00Z,0000380,01000600,0000.49,0000.24,0000.07,0000.22,0000.14,0000.21,-000.16,0000.03,0000.03,27.0,00.1,0661.5,34.7
2016-09-05T00:12:00Z,0000380,01000600,-000.78,-000.27,-000.46,-000.62,0000.19,-000.02,0000.15,-000.04,0000.05,27.0,00.1,0661.5,34.7
2016-09-05T00:13:00Z,0000380,01000600,0000.53,0000.06,0000.12,0000.32,0000.10,0000.40,0000.05,-000.07,0000.04,27.0,00.0,0661.5,34.7
2016-09-05T00:14:00Z,0000380,01000600,0000.41,-000.02,0000.40,-000.02,-000.02,0000.16,-000.16,0000.08,0000.24,26.9,00.1,0661.5,34.7
2016-09-05T00:15:00Z,0000380,01000600,0000.15,0000.03,-000.13,0000.42,-000.24,0000.13,0000.12,0000.12,-000.17,27.0,00.1,0661.5,34.7
2016-09-05T00:16:00Z,0000380,01000600,0000.35,0000.03,-000.04,0000.24,0000.02,0000.26,0000.04,-000.11,-000.06,27.0,00.1,0661.5,34.7
2016-09-05T00:17:00Z,0000380,01000600,0000.63,-000.32,0000.26,-000.48,0000.33,0000.34,-000.03,-000.03,-000.07,27.0,00.1,0661.5,34.7
2016-09-05T00:18:00Z,0000380,01000600,0000.24,0000.29,-000.11,-000.26,0000.46,0000.27,0000.04,0000.18,0000.06,27.0,00.0,0661.6,34.7
2016-09-05T00:19:00Z,0000380,01000600,0000.50,-000.61,-000.09,0000.27,0000.27,0000.18,-000.17,0000.04,0000.17,27.0,00.1,0661.5,34.7
2016-09-05T00:20:00Z,0000380,01000600,0000.13,-000.39,0000.06,0000.16,0000.43,0000.22,0000.24,-000.05,0000.07,26.9,00.1,0661.5,34.7
2016-09-05T00:21:00Z,0000380,01000600,0000.10,0000.01,-000.02,-000.32,0000.11,0000.08,-000.11,0000.02,-000.05,27.0,00.1,0661.5,34.7
2016-09-05T00:22:00Z,0000380,01000600,0000.90,-000.24,0000.11,0000.05,0000.08,0000.05,0000.02,-000.10,-000.06,27.0,00.1,0661.5,34.7
2016-09-05T00:23:00Z,0000380,01000600,-000.35,0000.38,-000.26,0000.00,0000.05,-000.03,0000.10,0000.01,0000.23,26.9,00.1,0661.5,34.7
2016-09-05T00:24:00Z,0000380,01000600,-000.12,0000.33,0000.12,-000.45,0000.03,0000.26,-000.05,0000.09,-000.09,26.9,00.1,0661.5,34.7
2016-09-05T00:25:00Z,0000380,01000600,0001.01,0000.22,0000.06,0000.18,0000.45,0000.08,0000.03,-000.01,0000.16,26.9,00.1,0661.5,34.7
2016-09-05T00:26:00Z,0000380,01000600,-000.01,-000.23,0000.04,-000.21,0000.49,0000.08,-000.10,-000.03,-000.12,26.9,00.0,0661.5,34.7
2016-09-05T00:27:00Z,0000380,01000600,0000.05,0000.00,0000.06,-000.11,0000.46,0000.34,0000.04,0000.14,-000.07,27.0,00.1,0661.5,34.7
2016-09-05T00:28:00Z,0000380,01000600,-000.04,-000.53,0000.43,-000.13,0000.24,0000.02,0000.06,-000.08,0000.13,26.9,00.0,0661.5,34.7
2016-09-05T00:29:00Z,0000380,01000600,0000.29,0000.47,-000.12,-000.42,0000.29,-000.06,0000.09,0000.09,-000.02,27.0,00.0,0661.5,34.7
2016-09-05T00:30:00Z,0000380,01000600,0000.56,0000.11,0000.42,-000.18,0000.22,0000.22,-000.15,-000.09,-000.19,27.0,00.1,0661.5,34.7
2016-09-05T00:31:00Z,0000380,01000600,0000.24,-000.01,-000.36,-000.13,0000.16,0000.02,0000.09,0000.22,0000.28,27.0,00.1,0661.5,34.7
2016-09-05T00:32:00Z,0000380,01000600,-000.40,-000.01,-000.11,-000.99,0000.08,0000.27,0000.03,0000.08,0000.21,27.0,00.0,0661.5,34.7
2016-09-05T00:33:00Z,0000380,01000600,0000.11,-000.16,-000.42,0000.14,-000.06,0000.11,0000.02,-000.06,-000.27,27.0,00.1,0661.5,34.7
2016-09-05T00:34:00Z,0000380,01000600,-000.34,0000.38,-000.22,0000.67,0000.33,-000.40,-000.00,0000.01,0000.23,27.0,00.1,0661.5,34.7
2016-09-05T00:35:00Z,0000380,01000600,0000.36,0000.30,0000.13,-000.34,0000.22,0000.42,-000.09,-000.04,0000.00,27.0,00.1,0661.5,34.7
2016-09-05T00:36:00Z,0000380,01000600,0000.34,-000.08,-000.07,0000.32,0000.30,0000.06,0000.15,0000.20,-000.05,27.0,00.1,0661.6,34.7
2016-09-05T00:37:00Z,0000380,01000600,0000.68,-000.20,-000.26,0000.72,0000.05,-000.34,-000.09,-000.16,-000.07,27.0,00.1,0661.6,34.7
2016-09-05T00:38:00Z,0000380,01000600,0000.26,-000.49,-000.25,0000.22,0000.05,0000.03,-000.04,0000.06,0000.08,27.0,00.1,0661.6,34.7
2016-09-05T00:39:00Z,0000380,01000600,-000.50,-000.83,-000.23,-000.10,-000.05,-000.24,0000.01,0000.02,-000.02,27.0,00.1,0661.5,34.7
2016-09-05T00:40:00Z,0000380,01000600,0000.57,-000.16,0000.39,-000.48,0000.59,0000.35,0000.20,0000.12,-000.20,27.0,00.1,0661.5,34.7
2016-09-05T00:41:00Z,0000380,01000600,0000.24,-000.04,0000.07,-000.06,0000.10,-000.03,-000.12,-000.08,0000.13,27.1,00.1,0661.5,34.7
2016-09-05T00:42:00Z,0000380,01000600,-000.04,0000.11,0000.23,-000.51,0000.21,-000.10,0000.02,0000.19,-000.07,27.0,00.1,0661.5,34.7
2016-09-05T00:43:00Z,0000380,01000600,0000.11,0000.06,-000.08,-000.43,0000.27,0000.11,-000.25,-000.22,0000.26,27.1,00.1,0661.5,34.7
2016-09-05T00:44:00Z,0000380,01000600,0000.44,-000.16,-000.57,-000.26,-000.16,0000.26,0000.07,0000.20,0000.22,27.1,00.1,0661.5,34.7
2016-09-05T00:45:00Z,0000380,01000600,-000.87,0000.18,0000.25,0000.45,0000.11,0000.38,0000.05,-000.06,-000.10,27.2,00.1,0661.5,34.8
2016-09-05T00:46:00Z,0000380,01000600,-000.28,-000.20,-000.09,-000.64,0000.16,0000.32,0000.18,-000.04,-000.01,27.2,00.1,0661.5,34.8
2016-09-05T00:47:00Z,0000380,01000600,0000.55,-000.26,0000.41,0000.56,0000.02,0000.64,0000.03,0000.08,0000.05,27.2,00.1,0661.5,34.8
2016-09-05T00:48:00Z,0000380,01000600,0000.61,0000.49,0000.60,-000.26,0000.18,0000.29,0000.00,-000.02,0000.12,27.2,00.1,0661.5,34.8
2016-09-05T00:49:00Z,0000380,01000600,0000.29,-000.09,0000.18,0000.59,0000.21,-000.13,-000.03,0000.11,-000.09,27.2,00.1,0661.5,34.8
2016-09-05T00:50:00Z,0000380,01000600,-000.03,0000.11,-000.31,0000.13,0000.03,-000.10,-000.02,-000.03,-000.14,27.3,00.1,0661.5,34.8
2016-09-05T00:51:00Z,0000380,01000600,0000.13,0000.04,-000.17,0000.08,0000.29,0000.03,0000.12,0000.01,0000.07,27.3,00.1,0661.5,34.8
2016-09-05T00:52:00Z,0000380,01000600,-000.18,-000.10,0000.08,-000.69,0000.37,0000.10,0000.04,0000.07,0000.16,27.3,00.1,0661.5,34.8
2016-09-05T00:53:00Z,0000380,01000600,0000.68,-000.26,0000.09,-000.93,0000.06,0000.37,-000.21,0000.03,0000.10,27.3,00.2,0661.5,34.8
2016-09-05T00:54:00Z,0000380,01000600,0000.85,0000.16,-000.39,0000.18,0000.11,-000.10,-000.01,0000.07,-000.20,27.3,00.1,0661.5,34.8
2016-09-05T00:55:00Z,0000380,01000600,0000.59,0000.23,-000.10,0000.18,0000.05,0000.26,0000.22,-000.15,0000.19,27.4,00.1,0661.5,34.8
2016-09-05T00:56:00Z,0000380,01000600,-000.55,-000.36,0000.14,0000.83,-000.48,0000.42,-000.10,-000.02,-000.41,27.4,00.1,0661.5,34.8
2016-09-05T00:57:00Z,0000380,41000600,,,,,,,,,,,,0661.4,34.8
2016-09-05T00:58:00Z,0000380,61000600,,,,,,,,,,27.3,00.0,0660.6,34.8
2016-09-05T00:59:00Z,0000380,21000600,,,,,,,,,,27.3,00.0,0660.6,34.8
2016-09-05T01:00:00Z,0000380,21000600,,,,,,,,,,27.3,00.0,0660.6,34.8
2016-09-05T01:01:00Z,0000380,21000600,,,,,,,,,,27.3,00.0,0660.6,34.8
2016-09-05T01:02:00Z,0000380,21000600,,,,,,,,,,27.3,00.0,0660.6,34.8
2016-09-05T01:03:00Z,0000380,61000600,,,,,,,,,,27.4,00.0,0660.6,34.8
2016-09-05T01:04:00Z,0000380,41000600,0000.45,0000.14,0000.22,0000.02,-000.27,0000.10,-000.08,-000.20,0000.04,27.6,00.1,0661.4,34.8
2016-09-05T01:05:00Z,0000380,01000600,-000.12,0000.00,0000.02,0000.03,-000.34,-000.35,-000.00,0000.03,-000.22,27.6,00.1,0661.5,34.8
2016-09-05T01:06:00Z,0000380,01000600,0000.71,0000.17,-000.15,0000.45,0000.03,-000.29,0000.23,0000.04,-000.14,27.6,00.1,0661.5,34.8
2016-09-05T01:07:00Z,0000380,01000600,0000.45,0000.16,-000.24,0000.16,-000.22,-000.31,-000.03,0000.06,0000.25,27.6,00.1,0661.5,34.8
2016-09-05T01:08:00Z,0000380,01000600,0000.22,-000.12,-000.21,0000.18,0000.18,-000.18,-000.13,0000.04,0000.19,27.7,00.1,0661.5,34.8
2016-09-05T01:09:00Z,0000380,01000600,0000.00,-000.25,-000.09,-000.14,-000.38,-000.16,-000.10,-000.04,-000.28,27.7,00.1,0661.5,34.8
2016-09-05T01:10:00Z,0000380,01000600,0000.63,0000.55,-000.14,-000.29,0000.13,-000.10,-000.01,-000.12,0000.07,27.7,00.1,0661.5,34.8
2016-09-05T01:11:00Z,0000380,01000600,0000.22,0000.10,0000.28,-000.37,-000.16,0000.42,0000.13,0000.05,-000.00,27.7,00.1,0661.5,34.8
2016-09-05T01:12:00Z,0000380,01000600,0000.88,0000.01,-000.23,0000.34,0000.03,0000.11,0000.02,-000.00,-000.00,27.6,00.1,0661.5,34.8
2016-09-05T01:13:00Z,0000380,01000600,0000.10,0000.03,-000.12,-000.13,0000.06,-000.10,-000.07,-000.13,-000.05,27.6,00.1,0661.5,34.8
2016-09-05T01:14:00Z,0000380,01000600,0000.37,-000.03,0000.20,0000.10,-000.06,0000.21,0000.03,0000.01,-000.21,27.6,00.1,0661.5,34.8
2016-09-05T01:15:00Z,0000380,01000600,0000.17,-000.02,-000.01,0000.19,-000.06,0000.16,-000.04,0000.08,0000.05,27.6,00.1,0661.5,34.8
2016-09-05T01:16:00Z,0000380,01000600,0001.13,-000.20,-000.14,-000.19,-000.26,-000.11,0000.05,-000.25,0000.12,27.6,00.1,0661.5,34.8
2016-09-05T01:17:00Z,0000380,01000600,0000.06,-000.78,-000.32,0000.40,0000.06,-000.03,-000.13,0000.11,0000.19,27.5,00.1,0661.5,34.8
2016-09-05T01:18:00Z,0000380,01000600,-001.53,-000.36,0000.07,0000.40,-000.51,-000.14,0000.07,-000.01,-000.35,27.5,00.1,0661.5,34.8
2016-09-05T01:19:00Z,0000380,01000600,0001.09,0000.14,0000.23,0000.00,0000.03,0000.08,0000.04,0000.12,0000.16,27.5,00.2,0661.4,34.8
2016-09-05T01:20:00Z,0000380,01000600,0000.51,0000.16,0000.29,0000.37,0000.02,-000.05,0000.05,-000.07,-000.01,27.5,00.1,0661.4,34.8
2016-09-05T01:21:00Z,0000380,01000600,-000.41,0000.04,0000.36,0000.26,0000.30,-000.19,-000.19,0000.10,0000.14,27.5,00.2,0661.4,34.8
2016-09-05T01:22:00Z,0000380,01000600,0000.92,0000.04,0000.00,0000.21,-000.10,0000.34,-000.07,-000.04,-000.05,27.5,00.1,0661.4,34.8
2016-09-05T01:23:00Z,0000380,01000600,0000.09,0000.04,0000.25,-000.37,-000.03,0000.05,0000.07,0000.04,-000.08,27.5,00.2,0661.4,34.8
2016-09-05T01:24:00Z,0000380,01000600,0000.40,0000.22,-000.33,-000.21,-000.43,-000.10,-000.04,0000.09,-000.05,27.5,00.2,0661.4,34.8
2016-09-05T01:25:00Z,0000380,01000600,-000.09,-000.72,-000.27,-000.38,0000.05,-000.08,0000.09,-000.10,0000.36,27.5,00.2,0661.4,34.8
2016-09-05T01:26:00Z,0000380,01000600,0000.27,0000.56,0000.58,-000.18,-000.27,0000.14,-000.00,-000.02,-000.19,27.5,00.1,0661.4,34.8
2016-09-05T01:27:00Z,0000380,01000600,0000.19,-000.03,-000.16,-000.24,-000.05,-000.02,-000.09,0000.03,-000.17,27.5,00.1,0661.4,34.8
2016-09-05T01:28:00Z,0000380,01000600,0000.60,0000.03,0000.00,0000.27,-000.29,-000.34,0000.10,0000.05,0000.03,27.5,00.1,0661.4,34.8
2016-09-05T01:29:00Z,0000380,01000600,0000.23,-000.00,-000.01,-000.66,0000.03,0000.24,-000.12,0000.10,0000.09,27.6,00.1,0661.4,34.8
2016-09-05T01:30:00Z,0000380,01000600,0000.01,0000.20,0000.16,0000.18,0000.00,-000.08,0000.00,0000.06,0000.07,27.6,00.2,0661.4,34.8
2016-09-05T01:31:00Z,0000380,01000600,-000.33,0000.60,-000.38,-000.14,-000.72,0000.19,-000.01,-000.13,0000.09,27.6,00.1,0661.4,34.8
2016-09-05T01:32:00Z,0000380,01000600,0000.04,-000.09,0000.18,0000.08,0000.05,0000.43,-000.05,0000.08,-000.18,27.6,00.1,0661.4,34.8
2016-09-05T01:33:00Z,0000380,01000600,0000.24,-000.23,0000.36,0000.16,0000.48,0000.29,0000.18,-000.19,0000.10,27.6,00.1,0661.4,34.8
2016-09-05T01:34:00Z,0000380,01000600,0000.22,0000.57,-000.29,0000.05,-000.30,-000.27,-000.11,0000.09,-000.02,27.6,00.2,0661.4,34.8
2016-09-05T01:35:00Z,0000380,01000600,0000.43,0000.39,-000.44,0000.35,0000.37,0000.02,0000.14,0000.00,0000.01,27.6,00.2,0661.4,34.8
2016-09-05T01:36:00Z,0000380,01000600,-000.04,-000.62,0000.18,0000.03,-000.54,0000.37,-000.15,-000.01,0000.00,27.6,00.1,0661.4,34.8
2016-09-05T01:37:00Z,0000380,01000600,-000.35,-000.31,0000.11,0000.05,-000.06,0000.18,-000.00,0000.03,0000.21,27.7,00.1,0661.4,34.8
2016-09-05T01:38:00Z,0000380,01000600,-000.66,0000.11,-000.19,-000.06,-000.13,-000.19,0000.06,-000.08,-000.26,27.6,00.1,0661.4,34.8
2016-09-05T01:39:00Z,0000380,01000600,-000.37,0000.16,0000.00,0000.27,-000.05,0000.22,-000.06,0000.03,0000.11,27.6,00.1,0661.4,34.8
2016-09-05T01:40:00Z,0000380,01000600,0001.08,0001.49,-000.02,0000.19,-000.45,-000.16,-000.08,-000.08,-000.28,27.6,00.1,0661.4,34.8
2016-09-05T01:41:00Z,0000380,01000600,-000.28,0000.00,-000.12,-000.03,-000.16,0000.14,0000.17,0000.14,0000.14,27.6,00.1,0661.4,34.8
2016-09-05T01:42:00Z,0000380,01000600,0000.68,-000.29,-000.08,-000.02,-000.02,-000.31,-000.04,-000.14,-000.15,27.5,00.1,0661.4,34.8
2016-09-05T01:43:00Z,0000380,01000600,0001.18,-000.14,0000.02,-000.32,-000.32,0000.14,0000.02,0000.09,0000.21,27.6,00.1,0661.4,34.8
2016-09-05T01:44:00Z,0000380,01000600,-000.04,-000.47,-000.02,0000.03,-000.34,0000.29,0000.03,-000.17,-000.43,27.5,00.1,0661.4,34.8
2016-09-05T01:45:00Z,0000380,01000600,-001.70,0000.22,-000.07,-000.14,-000.43,0000.02,0000.10,0000.15,0000.20,27.5,00.1,0661.3,34.7
2016-09-05T01:46:00Z,0000380,01000600,0000.22,-000.25,0000.18,-000.21,-000.19,-000.19,-000.09,-000.04,0000.15,27.5,00.1,0661.3,34.7
2016-09-05T01:47:00Z,0000380,01000600,0000.46,-000.12,0000.40,0000.13,-000.18,-000.05,-000.09,0000.07,0000.09,27.5,00.1,0661.3,34.7
2016-09-05T01:48:00Z,0000380,01000600,-000.15,-000.42,0000.04,0000.30,0000.02,-000.26,0000.00,-000.06,-000.12,27.5,00.1,0661.3,34.7
2016-09-05T01:49:00Z,0000380,01000600,0000.55,0000.31,-000.37,0000.64,-000.21,-000.35,0000.14,0000.10,0000.19,27.5,00.1,0661.3,34.7
2016-09-05T01:50:00Z,0000380,01000600,-000.65,-000.79,0000.55,0000.06,-000.35,-000.16,-000.03,-000.10,0000.15,27.5,00.1,0661.3,34.7
2016-09-05T01:51:00Z,0000380,01000600,0000.96,0000.18,-000.19,-000.39,0000.03,-000.03,-000.22,0000.15,-000.19,27.6,00.1,0661.3,34.7
2016-09-05T01:52:00Z,0000380,01000600,0000.25,-000.11,0000.11,-000.14,0000.14,-000.13,0000.12,-000.06,-000.16,27.5,00.1,0661.3,34.7
2016-09-05T01:53:00Z,0000380,01000600,-000.26,-000.58,-000.11,0000.35,-000.19,-000.31,0000.04,0000.05,0000.11,27.5,00.2,0661.3,34.7
2016-09-05T01:54:00Z,0000380,01000600,0000.11,0000.24,0000.21,0000.34,-000.14,-000.39,-000.08,-000.01,0000.00,27.6,00.2,0661.3,34.7
2016-09-05T01:55:00Z,0000380,01000600,0000.07,-000.52,0000.02,-000.42,-000.14,0000.29,0000.11,0000.04,0000.08,27.6,00.1,0661.3,34.7
2016-09-05T01:56:00Z,0000380,01000600,0000.00,-000.05,0000.02,-000.35,-000.66,-000.10,-000.19,-000.05,0000.10,27.6,00.1,0661.3,34.7
2016-09-05T01:57:00Z,0000380,41000600,,,,,,,,,,,,0661.5,34.7
2016-09-05T01:58:00Z,0000380,61000600,,,,,,,,,,27.5,00.0,0660.5,34.7
2016-09-05T01:59:00Z,0000380,21000600,,,,,,,,,,27.5,00.0,0660.4,34.7
2016-09-05T02:00:00Z,0000380,21000600,,,,,,,,,,27.5,00.0,0660.4,34.7
2016-09-05T02:01:00Z,0000380,21000600,,,,,,,,,,27.5,00.0,0660.4,34.7
2016-09-05T02:02:00Z,0000380,21000600,,,,,,,,,,27.5,00.0,0660.4,34.7
2016-09-05T02:03:00Z,0000380,61000600,,,,,,,,,,27.6,00.0,0660.4,34.7
2016-09-05T02:04:00Z,0000380,41000600,-000.42,0000.27,-000.11,-000.39,0000.42,0000.05,0000.14,0000.01,0000.13,27.6,00.2,0661.2,34.7
2016-09-05T02:05:00Z,0000380,01000600,-000.14,0000.12,0000.58,0000.75,-000.14,0000.21,-000.14,-000.08,-000.03,27.6,00.3,0661.3,34.7
2016-09-05T02:06:00Z,0000380,01000600,0001.43,0000.37,0000.27,-001.03,-000.16,0000.35,-000.02,0000.18,0000.11,27.6,00.3,0661.3,34.7
2016-09-05T02:07:00Z,0000380,01000600,0000.85,-000.21,0000.43,0000.55,0000.24,0000.27,0000.02,-000.18,-000.43,27.6,00.2,0661.3,34.7
2016-09-05T02:08:00Z,0000380,01000600,0000.14,-000.35,0000.49,0000.19,0000.30,0000.08,-000.19,0000.14,0000.25,27.5,00.3,0661.3,34.7
2016-09-05T02:09:00Z,0000380,01000600,0000.54,-000.06,0000.00,0000.21,0000.70,0000.16,-000.03,0000.03,-000.01,27.6,00.3,0661.3,34.7
2016-09-05T02:10:00Z,0000380,01000600,0000.54,-000.11,0000.27,0000.05,-000.43,-000.06,-000.01,-000.07,0000.07,27.6,00.3,0661.3,34.7
2016-09-05T02:11:00Z,0000380,01000600,0000.63,-000.18,0000.23,-000.40,-000.19,0000.11,0000.09,-000.08,0000.16,27.6,00.4,0661.3,34.7
2016-09-05T02:12:00Z,0000380,01000600,0001.02,-000.02,0000.23,0000.03,-000.03,0000.13,0000.14,0000.10,-000.12,27.6,00.4,0661.3,34.7
2016-09-05T02:13:00Z,0000380,01000600,0000.52,-000.14,-000.29,0000.06,0000.34,-000.16,-000.10,0000.06,-000.04,27.6,00.4,0661.3,34.7
2016-09-05T02:14:00Z,0000380,01000600,0000.42,0000.03,-000.11,-000.18,0000.13,0000.10,-000.14,0000.05,0000.20,27.6,00.4,0661.3,34.7
2016-09-05T02:15:00Z,0000380,01000600,0000.26,0000.44,0000.43,-000.22,-000.05,0000.08,0000.11,0000.05,0000.04,27.6,00.4,0661.3,34.8
2016-09-05T02:16:00Z,0000380,01000600,0000.32,-000.30,-000.14,0000.27,0000.06,-000.05,-000.01,-000.04,0000.20,27.6,00.5,0661.3,34.8
2016-09-05T02:17:00Z,0000380,01000600,0000.63,0000.33,0000.38,-000.45,0000.16,0000.42,0000.03,-000.01,0000.11,27.6,00.5,0661.3,34.8
2016-09-05T02:18:00Z,0000380,01000600,0000.64,0000.27,-000.05,-000.37,0000.10,-000.08,0000.12,-000.03,-000.04,27.6,00.5,0661.3,34.8
2016-09-05T02:19:00Z,0000380,01000600,0000.00,0000.60,-000.04,0000.19,-000.08,-000.03,0000.01,-000.04,-000.25,27.6,00.5,0661.3,34.8
2016-09-05T02:20:00Z,0000380,01000600,0000.38,0000.49,0000.25,0000.13,0000.46,-000.11,-000.19,0000.01,0000.04,27.6,00.5,0661.2,34.8
2016-09-05T02:21:00Z,0000380,01000600,0000.88,0000.62,0000.69,-001.11,0000.08,-000.24,0000.12,-000.05,-000.05,27.5,00.5,0661.3,34.8
2016-09-05T02:22:00Z,0000380,01000600,0000.39,0000.66,0000.58,-000.56,-000.14,0000.10,0000.02,0000.07,-000.11,27.5,00.4,0661.3,34.8
2016-09-05T02:23:00Z,0000380,01000600,0000.96,-000.43,0000.08,0000.22,-000.06,0000.11,-000.12,0000.15,0000.31,27.6,00.5,0661.2,34.8
2016-09-05T02:24:00Z,0000380,01000600,0000.68,0000.65,0000.07,0000.50,0000.19,-000.27,0000.10,-000.14,-000.07,27.5,00.5,0661.3,34.8
2016-09-05T02:25:00Z,0000380,01000600,-000.77,0000.35,0000.62,-000.13,0000.26,-000.13,0000.01,-000.00,-000.10,27.5,00.6,0661.3,34.8
2016-09-05T02:26:00Z,0000380,01000600,0000.82,0000.46,-000.28,0000.22,-000.13,-000.08,-000.06,-000.01,0000.13,27.5,00.5,0661.3,34.8
2016-09-05T02:27:00Z,0000380,01000600,-000.25,-000.15,-000.18,0000.22,0000.13,0000.00,-000.13,0000.02,-000.04,27.5,00.5,0661.2,34.8
2016-09-05T02:28:00Z,0000380,01000600,0000.14,0000.30,-000.10,-000.06,0000.37,-000.11,0000.19,-000.03,-000.00,27.5,00.5,0661.2,34.8
2016-09-05T02:29:00Z,0000380,01000600,0000.23,0000.46,0000.41,-000.19,-000.26,0000.39,-000.05,0000.08,0000.10,27.5,00.5,0661.2,34.8
2016-09-05T02:30:00Z,0000380,01000600,0001.46,0000.09,-000.10,0000.06,0000.19,-000.11,0000.14,-000.04,-000.30,27.5,00.5,0661.2,34.7
2016-09-05T02:31:00Z,0000380,01000600,0000.98,0000.06,0000.08,0000.10,0000.46,0000.03,-000.06,0000.07,0000.44,27.5,00.5,0661.2,34.7
2016-09-05T02:32:00Z,0000380,01000600,0000.48,0000.17,0000.13,0000.18,0000.45,0000.29,-000.28,-000.00,-000.36,27.5,00.5,0661.2,34.7
2016-09-05T02:33:00Z,0000380,01000600,0000.06,-000.46,0000.28,-000.55,-000.06,0000.27,0000.35,0000.05,0000.13,27.5,00.5,0661.2,34.7
2016-09-05T02:34:00Z,0000380,01000600,0000.00,0000.15,0000.04,-000.19,0000.11,0000.19,-000.07,0000.01,0000.14,27.5,00.6,0661.2,34.7
2016-09-05T02:35:00Z,0000380,01000600,0000.16,0000.29,-000.06,0000.14,0000.10,-000.29,-000.14,0000.02,-000.15,27.5,00.4,0661.2,34.7
2016-09-05T02:36:00Z,0000380,01000600,0000.71,-000.09,-000.08,0000.43,-000.10,-000.13,0000.11,-000.05,0000.24,27.5,00.4,0661.2,34.7
2016-09-05T02:37:00Z,0000380,01000600,0000.03,-000.39,0000.21,0000.72,-000.38,0000.13,-000.02,-000.07,-000.22,27.5,00.4,0661.2,34.7
2016-09-05T02:38:00Z,0000380,01000600,0000.27,0000.03,0000.06,-000.19,0000.21,0000.05,-000.19,0000.11,-000.18,27.5,00.5,0661.2,34.7
2016-09-05T02:39:00Z,0000380,01000600,0000.24,0000.22,0000.02,-000.24,0000.43,-000.21,0000.12,-000.08,0000.26,27.5,00.6,0661.1,34.7
2016-09-05T02:40:00Z,0000380,01000600,0000.26,-000.28,0000.31,0000.21,0000.16,0000.34,0000.06,0000.03,0000.32,27.5,00.6,0661.1,34.7
2016-09-05T02:41:00Z,0000380,01000600,0000.13,0000.06,-000.21,0000.22,-000.10,-000.31,-000.07,0000.02,-000.29,27.5,00.5,0661.2,34.7
2016-09-05T02:42:00Z,0000380,01000600,0000.20,0000.45,0000.80,-000.29,0000.00,0000.31,-000.01,-000.00,0000.16,27.5,00.6,0661.1,34.7
2016-09-05T02:43:00Z,0000380,01000600,0000.53,-000.02,-000.29,0000.00,-000.21,0000.26,-000.02,0000.15,0000.08,27.5,00.6,0661.2,34.7
2016-09-05T02:44:00Z,0000380,01000600,0000.67,0000.48,0000.03,-000.11,0000.26,0000.22,0000.23,-000.09,-000.30,27.5,00.5,0661.2,34.7
2016-09-05T02:45:00Z,0000380,01000600,0001.05,0000.11,0000.00,0000.10,0000.16,0000.29,-000.20,-000.04,0000.09,27.5,00.5,0661.2,34.8
2016-09-05T02:46:00Z,0000380,01000600,0000.65,0000.52,0000.51,-000.67,0000.35,0000.27,0000.02,0000.06,-000.04,27.5,00.6,0661.2,34.8
2016-09-05T02:47:00Z,0000380,01000600,0000.92,0000.56,0000.41,-000.10,0000.70,0000.14,-000.15,-000.06,-000.07,27.5,00.6,0661.2,34.8
2016-09-05T02:48:00Z,0000380,01000600,-000.41,0000.33,0000.36,0000.24,0000.14,-000.05,-000.02,-000.01,0000.05,27.5,00.6,0661.1,34.8
2016-09-05T02:49:00Z,0000380,01000600,-000.21,0000.43,0000.37,-000.63,0000.24,0000.27,0000.25,0000.06,0000.25,27.5,00.5,0661.1,34.8
2016-09-05T02:50:00Z,0000380,01000600,0001.48,0000.44,0000.29,-000.10,0000.24,0000.22,-000.06,0000.04,-000.37,27.5,00.6,0661.1,34.8
2016-09-05T02:51:00Z,0000380,01000600,0000.44,0000.00,0000.09,0000.40,-000.02,0000.18,0000.12,-000.13,0000.25,27.5,00.6,0661.1,34.8
2016-09-05T02:52:00Z,0000380,01000600,-000.71,-000.10,0000.50,-000.08,0000.13,0000.14,-000.12,0000.08,-000.07,27.5,00.6,0661.2,34.8
2016-09-05T02:53:00Z,0000380,01000600,0000.29,0000.04,0000.27,-000.19,-000.11,-000.06,0000.11,-000.02,0000.01,27.5,00.6,0661.2,34.8
2016-09-05T02:54:00Z,0000380,01000600,0000.70,-000.20,0000.23,-000.16,0000.05,0000.00,-000.12,0000.12,0000.25,27.5,00.5,0661.1,34.8
2016-09-05T02:55:00Z,0000380,01000600,0000.77,0000.65,-000.16,0000.47,-000.08,0000.16,-000.01,-000.08,-000.18,27.5,00.6,0661.2,34.8
2016-09-05T02:56:00Z,0000380,01000600,0000.04,0000.63,0000.64,-000.30,0000.62,0000.16,0000.09,0000.18,-000.05,27.5,00.6,0661.2,34.8
2016-09-05T02:57:00Z,0000380,41000600,,,,,,,,,,,,0661.1,34.8
2016-09-05T02:58:00Z,0000380,61000600,,,,,,,,,,27.3,00.4,0660.2,34.8
2016-09-05T02:59:00Z,0000380,21000600,,,,,,,,,,27.3,00.4,0660.2,34.8
2016-09-05T03:00:00Z,0000380,21000600,,,,,,,,,,27.3,00.4,0660.2,34.8
2016-09-05T03:01:00Z,0000380,21000600,,,,,,,,,,27.3,00.4,0660.2,34.8
2016-09-05T03:02:00Z,0000380,21000600,,,,,,,,,,27.3,00.4,0660.2,34.8
2016-09-05T03:03:00Z,0000380,61000600,,,,,,,,,,27.4,00.4,0660.2,34.8
2016-09-05T03:04:00Z,0000380,41000600,-000.35,0000.49,0000.47,0000.48,0000.37,0000.21,0000.14,0000.06,-000.12,27.5,00.5,0661.0,34.8
2016-09-05T03:05:00Z,0000380,01000600,0000.47,0001.23,0000.09,-000.11,0000.02,0000.02,0000.08,-000.00,-000.02,27.5,00.5,0661.1,34.8
2016-09-05T03:06:00Z,0000380,01000600,0000.66,0000.72,-000.05,0000.05,-000.08,0000.03,-000.21,0000.01,0000.01,27.5,00.6,0661.1,34.8
2016-09-05T03:07:00Z,0000380,01000600,0000.64,0001.01,0000.82,-000.06,-000.10,-000.05,0000.10,-000.09,0000.07,27.5,00.5,0661.1,34.8
2016-09-05T03:08:00Z,0000380,01000600,0000.94,0000.19,0000.21,0000.34,0000.32,0000.10,0000.09,0000.08,0000.11,27.5,00.5,0661.1,34.8
2016-09-05T03:09:00Z,0000380,01000600,0000.83,0000.81,0000.30,0000.18,-000.54,-000.13,0000.12,0000.05,-000.03,27.5,00.6,0661.1,34.8
2016-09-05T03:10:00Z,0000380,01000600,0000.51,0000.40,-000.08,-000.72,0000.26,-000.14,-000.02,-000.01,-000.03,27.4,00.6,0661.1,34.8
2016-09-05T03:11:00Z,0000380,01000600,0000.36,0000.76,-000.10,-000.10,0000.29,-000.16,0000.04,-000.13,0000.18,27.4,00.6,0661.1,34.8
2016-09-05T03:12:00Z,0000380,01000600,-000.52,-000.21,0000.16,-000.61,-000.05,0000.13,0000.06,0000.09,-000.23,27.4,00.6,0661.1,34.8